{"data":{"norad_id":53346,"intl_designator":"2022-090A","name":"TECMS","alt_names":[],"object_type":"PAYLOAD","status":"ACTIVE","operator":null,"country":"PRC","launch_date":"2022-08-04","launch_site_code":"TAISC","launch_vehicle":null,"mission":null,"orbit_class":"UNKNOWN","rcs_meters":null,"size_class":null,"mass_kg":null,"dimensions":null,"purposes":[],"wikipedia_slug":null,"has_3d_model":false,"image_url":null,"decayed_at":null,"tle_current":{"epoch":"2026-09-21T04:28:12.565920Z","epoch_age_seconds":81058,"freshness":"FRESH","line1":"1 53346U 22090A   26264.18625655  .00003405  00000+0  15680-3 0  9996","line2":"2 53346  97.3045 329.5217 0001188 195.2669 164.8531 15.20958030229404","mean_motion":15.2095803,"eccentricity":0.0001188,"inclination_deg":97.3045,"raan_deg":329.5217,"arg_perigee_deg":195.2669,"mean_anomaly_deg":164.8531,"bstar":0.0001568,"rev_number":22940,"period_min":94.677168705306,"perigee_km":502.13209019639,"apogee_km":503.76703636382,"semimajor_km":6881.0865632801,"source":"CELESTRAK","updated_at":"2026-09-21T09:00:08.994489Z"}}}